OK,67,70,862,67,2014-10-01T01:40:00,0,28072632,193268
OK,67,70,862,67,2014-10-01T01:45:00,0,28073079,193268
OK,67,70,862,67,2014-10-01T01:50:00,0,28073528,193268
OK,67,70,862,67,2014-10-01T01:55:00,0,28073845,193268
OK,67,70,862,67,2014-10-01T02:00:00,0,28074294,193268
OK,67,70,862,67,2014-10-01T02:05:00,0,28074736,193268
OK,67,70,862,67,2014-10-01T02:10:00,0,28075183,193268
OK,67,70,862,67,2014-10-01T02:15:00,0,28075632,193268
OK,67,70,862,67,2014-10-01T02:20:00,0,28076020,193268
OK,67,70,862,67,2014-10-01T02:25:00,0,28076464,193268
OK,67,70,862,67,2014-10-01T02:30:00,0,28076913,193268
OK,67,70,862,67,2014-10-01T02:35:00,0,28077362,193268
OK,67,70,862,67,2014-10-01T02:40:00,0,28077766,193268
OK,67,70,862,67,2014-10-01T02:45:00,0,28078214,193268
OK,67,70,862,67,2014-10-01T02:50:00,0,28078659,193268
OK,67,70,862,67,2014-10-01T02:55:00,0,28079108,193268
OK,67,70,862,67,2014-10-01T03:00:00,0,28079550,193268
OK,67,70,862,67,2014-10-01T03:05:00,0,28079999,193268
OK,67,70,862,67,2014-10-01T03:10:00,0,28080335,193268
OK,67,70,862,67,2014-10-01T03:15:00,0,28080782,193268
OK,67,70,862,67,2014-10-01T03:20:00,0,28081231,193268
OK,67,70,862,67,2014-10-01T03:25:00,0,28081678,193268
OK,67,70,862,67,2014-10-01T03:30:00,0,28082127,193268
OK,67,70,862,67,2014-10-01T03:35:00,0,28082562,193268
OK,67,70,862,67,2014-10-01T03:40:00,0,28082992,193268
OK,67,70,862,67,2014-10-01T03:45:00,0,28083441,193268
OK,67,70,862,67,2014-10-01T03:50:00,0,28083890,193268
OK,67,70,862,67,2014-10-01T03:55:00,0,28084333,193268
OK,67,70,862,67,2014-10-01T04:00:00,0,28084759,193268
OK,67,70,862,67,2014-10-01T04:05:00,0,28085205,193268
OK,67,70,862,67,2014-10-01T04:10:00,0,28085650,193268
OK,67,70,862,67,2014-10-01T04:15:00,0,28086099,193268
OK,67,70,862,67,2014-10-01T04:20:00,0,28086541,193268
OK,67,70,862,67,2014-10-01T04:25:00,0,28086990,193268
OK,67,70,862,67,2014-10-01T04:30:00,0,28087435,193268
OK,67,70,862,67,2014-10-01T04:35:00,0,28087884,193268
OK,67,70,862,67,2014-10-01T04:40:00,0,28088310,193268
OK,67,70,862,67,2014-10-01T04:45:00,0,28088757,193268
OK,67,70,862,67,2014-10-01T04:50:00,0,28089188,193268
OK,67,70,862,67,2014-10-01T04:55:00,0,28089636,193268
OK,67,70,862,67,2014-10-01T05:05:00,0,28090085,193268
OK,67,70,862,67,2014-10-01T05:10:00,0,28090878,193268
OK,67,70,862,67,2014-10-01T05:15:00,0,28091327,193268
OK,67,70,862,67,2014-10-01T05:20:00,0,28091745,193268
OK,67,70,862,67,2014-10-01T05:25:00,0,28092193,193268
OK,67,70,862,67,2014-10-01T05:30:00,0,28092638,193268
OK,67,70,862,67,2014-10-01T05:35:00,0,28093078,193268
OK,67,70,862,67,2014-10-01T05:40:00,0,28093509,193268
OK,67,70,862,67,2014-10-01T05:45:00,0,28093958,193268
OK,67,70,862,67,2014-10-01T05:50:00,0,28094372,193268
OK,67,70,862,67,2014-10-01T05:55:00,0,28094814,193268
OK,67,70,862,67,2014-10-01T06:00:00,0,28095261,193268
OK,67,70,862,67,2014-10-01T06:05:00,0,28095710,193268
OK,67,70,862,67,2014-10-01T06:10:00,0,28096124,193268
OK,67,70,862,67,2014-10-01T06:15:00,0,28096572,193268
OK,67,70,862,67,2014-10-01T06:20:00,0,28097007,193268
OK,67,70,862,67,2014-10-01T06:25:00,0,28097455,193268
OK,67,70,862,67,2014-10-01T06:30:00,0,28097904,193268
OK,67,70,862,67,2014-10-01T06:35:00,0,28098343,193268
OK,67,70,862,67,2014-10-01T06:40:00,0,28098785,193268
OK,67,70,862,67,2014-10-01T06:45:00,0,28099233,193268
OK,67,70,862,67,2014-10-01T06:50:00,0,28099578,193268
OK,67,70,862,67,2014-10-01T06:55:00,0,28100025,193268
OK,67,70,862,67,2014-10-01T07:00:00,0,28100334,193268
OK,67,70,862,67,2014-10-01T07:05:00,0,28100781,193268
OK,67,70,862,67,2014-10-01T07:10:00,0,28101153,193268
OK,67,70,862,67,2014-10-01T07:15:00,0,28101601,193268
OK,67,70,862,67,2014-10-01T07:20:00,0,28102038,193268
OK,67,70,862,67,2014-10-01T07:25:00,0,28102486,193268
OK,67,70,862,67,2014-10-01T07:30:00,0,28102917,193268
OK,67,70,862,67,2014-10-01T07:35:00,0,28103360,193268
OK,67,70,862,67,2014-10-01T07:40:00,0,28103805,193268
OK,67,70,862,67,2014-10-01T07:45:00,0,28104250,193268
OK,67,70,862,67,2014-10-01T07:50:00,0,28104692,193268
OK,67,70,862,67,2014-10-01T07:55:00,0,28105136,193268
OK,67,70,862,67,2014-10-01T08:00:00,0,28105577,193268
OK,67,70,862,67,2014-10-01T08:05:00,0,28106025,193268
OK,67,70,862,67,2014-10-01T08:10:00,0,28106462,193268
OK,67,70,862,67,2014-10-01T08:15:00,0,28106870,193268
OK,67,70,862,67,2014-10-01T08:20:00,0,28107300,193268
OK,67,70,862,67,2014-10-01T08:25:00,0,28107749,193268
OK,67,70,862,67,2014-10-01T08:30:00,0,28108188,193268
OK,67,70,862,67,2014-10-01T08:35:00,0,28108637,193268
OK,67,70,862,67,2014-10-01T08:40:00,0,28109066,193268
OK,67,70,862,67,2014-10-01T08:45:00,0,28109514,193268
OK,67,70,862,67,2014-10-01T08:50:00,0,28109858,193268
OK,67,70,862,67,2014-10-01T08:55:00,0,28110306,193268
OK,67,70,862,67,2014-10-01T09:00:00,0,28110729,193268
OK,67,70,862,67,2014-10-01T09:05:00,0,28111178,193268
OK,67,70,862,67,2014-10-01T09:10:00,0,28111607,193268
OK,67,70,862,67,2014-10-01T09:15:00,0,28112056,193268
OK,67,70,862,67,2014-10-01T09:20:00,0,28112398,193268
OK,67,70,862,67,2014-10-01T09:25:00,0,28112846,193268
OK,67,70,862,67,2014-10-01T09:30:00,0,28113271,193268
OK,67,70,862,67,2014-10-01T09:35:00,0,28113719,193268
OK,67,70,862,67,2014-10-01T09:40:00,0,28114151,193268
OK,67,70,862,67,2014-10-01T09:45:00,0,28114600,193268
OK,67,70,862,67,2014-10-01T09:50:00,0,28114955,193268
OK,67,70,862,67,2014-10-01T09:55:00,0,28115403,193268
OK,67,70,862,67,2014-10-01T10:00:00,0,28115816,193268
OK,67,70,862,67,2014-10-01T10:05:00,0,28116264,193268
OK,67,70,862,67,2014-10-01T10:10:00,0,28116673,193268
OK,67,70,862,67,2014-10-01T10:15:00,0,28117121,193268
OK,67,70,862,67,2014-10-01T10:20:00,0,28117546,193268
OK,67,70,862,67,2014-10-01T10:25:00,0,28117995,193268
OK,67,70,862,67,2014-10-01T10:30:00,0,28118440,193268
OK,67,70,862,67,2014-10-01T10:35:00,0,28118887,193268
OK,67,70,862,67,2014-10-01T10:40:00,0,28119331,193268
OK,67,70,862,67,2014-10-01T10:45:00,0,28119779,193268
OK,67,70,862,67,2014-10-01T10:50:00,0,28120227,193268
OK,67,70,862,67,2014-10-01T10:55:00,0,28120676,193268
OK,67,70,862,67,2014-10-01T11:00:00,0,28121060,193268
OK,67,70,862,67,2014-10-01T11:05:00,0,28121508,193268
OK,67,70,862,67,2014-10-01T11:10:00,0,28121947,193268
OK,67,70,862,67,2014-10-01T11:15:00,0,28122395,193268
OK,67,70,862,67,2014-10-01T11:20:00,0,28122837,193268
OK,67,70,862,67,2014-10-01T11:25:00,0,28123285,193268
OK,67,70,862,67,2014-10-01T11:30:00,0,28123718,193268
OK,67,70,862,67,2014-10-01T11:35:00,0,28124166,193268
OK,67,70,862,67,2014-10-01T11:40:00,0,28124570,193268
OK,67,70,862,67,2014-10-01T11:45:00,0,28125017,193268
OK,67,70,862,67,2014-10-01T11:50:00,0,28125446,193268
OK,67,70,862,67,2014-10-01T11:55:00,0,28125895,193268
OK,67,70,862,67,2014-10-01T12:00:00,0,28126248,193268
OK,77,61,862,77,2014-10-01T12:05:00,16,28126696,193268
OK,82,57,862,82,2014-10-01T12:10:00,12,28127145,193268
OK,86,55,862,86,2014-10-01T12:15:00,12,28127594,193268
OK,86,55,862,86,2014-10-01T12:20:00,12,28128023,193268
OK,87,54,862,87,2014-10-01T12:25:00,10,28128471,193268
OK,89,53,862,89,2014-10-01T12:30:00,7,28128906,193268
OK,89,53,862,89,2014-10-01T12:35:00,8,28129355,193268
OK,90,52,862,90,2014-10-01T12:40:00,13,28129790,193268
OK,89,53,862,89,2014-10-01T12:45:00,18,28130238,193268
OK,99,48,862,99,2014-10-01T12:50:00,19,28130667,193268
OK,104,45,862,104,2014-10-01T12:55:00,18,28131115,193268
OK,97,48,862,97,2014-10-01T13:00:00,15,28131553,193268
OK,88,54,862,88,2014-10-01T13:05:00,17,28132001,193268
OK,88,54,862,88,2014-10-01T13:10:00,20,28132440,193268
OK,87,54,862,87,2014-10-01T13:15:00,15,28132886,193268
OK,99,48,862,99,2014-10-01T13:20:00,18,28133324,193268
OK,100,47,862,100,2014-10-01T13:25:00,19,28133773,193268
OK,97,48,862,97,2014-10-01T13:30:00,15,28134212,193268
OK,94,50,862,94,2014-10-01T13:35:00,26,28134661,193268
OK,95,50,862,95,2014-10-01T13:40:00,17,28135081,193268
OK,94,50,862,94,2014-10-01T13:45:00,18,28135529,193268
OK,94,50,862,94,2014-10-01T13:50:00,21,28135966,193268
OK,88,54,862,88,2014-10-01T13:55:00,20,28136415,193268
OK,84,56,862,84,2014-10-01T14:00:00,14,28136855,193268
OK,94,50,862,94,2014-10-01T14:05:00,9,28137304,193268
OK,88,54,862,88,2014-10-01T14:10:00,14,28137738,193268
OK,93,51,862,93,2014-10-01T14:15:00,21,28138187,193268
OK,102,46,862,102,2014-10-01T14:20:00,23,28138616,193268
OK,113,42,862,113,2014-10-01T14:25:00,14,28139064,193268
OK,132,36,862,132,2014-10-01T14:30:00,14,28139476,193268
OK,116,40,862,116,2014-10-01T14:35:00,16,28139924,193268
OK,97,48,862,97,2014-10-01T14:40:00,15,28140367,193268
OK,90,52,862,90,2014-10-01T14:45:00,21,28140815,193268
OK,102,46,862,102,2014-10-01T14:50:00,20,28141242,193268
OK,136,34,862,136,2014-10-01T14:55:00,5,28141690,193268
OK,138,34,862,138,2014-10-01T15:00:00,0,28142119,193268
OK,138,34,862,138,2014-10-01T15:05:00,0,28142567,193268
OK,138,34,862,138,2014-10-01T15:10:00,0,28142995,193268
OK,138,34,862,138,2014-10-01T15:15:00,0,28143443,193268
OK,138,34,862,138,2014-10-01T15:20:00,0,28143891,193268
OK,138,34,862,138,2014-10-01T15:25:00,0,28144340,193268
OK,138,34,862,138,2014-10-01T15:30:00,0,28144763,193268
OK,138,34,862,138,2014-10-01T15:35:00,0,28145175,193268
OK,138,34,862,138,2014-10-01T15:40:00,0,28145624,193268
OK,138,34,862,138,2014-10-01T15:45:00,0,28146073,193268
OK,138,34,862,138,2014-10-01T15:50:00,0,28146522,193268
OK,138,34,862,138,2014-10-01T15:55:00,0,28146932,193268
OK,138,34,862,138,2014-10-01T16:00:00,0,28147374,193268
OK,138,34,862,138,2014-10-01T16:05:00,0,28147823,193268
OK,138,34,862,138,2014-10-01T16:10:00,0,28148225,193268
OK,138,34,862,138,2014-10-01T16:15:00,0,28148673,193268
OK,138,34,862,138,2014-10-01T16:20:00,0,28149113,193268
OK,138,34,862,138,2014-10-01T16:25:00,0,28149561,193268
OK,138,34,862,138,2014-10-01T16:30:00,0,28149988,193268
OK,138,34,862,138,2014-10-01T16:35:00,0,28150436,193268
OK,138,34,862,138,2014-10-01T16:40:00,0,28150855,193268
OK,138,34,862,138,2014-10-01T16:45:00,0,28151303,193268
OK,138,34,862,138,2014-10-01T16:50:00,0,28151752,193268
OK,138,34,862,138,2014-10-01T17:00:00,0,28152201,193268
OK,138,34,862,138,2014-10-01T17:05:00,0,28152647,193268
OK,138,34,862,138,2014-10-01T17:10:00,0,28153094,193268
OK,138,34,862,138,2014-10-01T17:15:00,0,28153543,193268
OK,138,34,862,138,2014-10-01T17:20:00,0,28153954,193268
OK,138,34,862,138,2014-10-01T17:25:00,0,28154402,193268
OK,138,34,862,138,2014-10-01T17:30:00,0,28154844,193268
OK,138,34,862,138,2014-10-01T17:35:00,0,28155292,193268
OK,138,34,862,138,2014-10-01T17:40:00,0,28155712,193268
OK,138,34,862,138,2014-10-01T17:45:00,0,28156159,193268
OK,138,34,862,138,2014-10-01T17:50:00,0,28156608,193268
OK,138,34,862,138,2014-10-01T17:55:00,0,28157046,193268
OK,138,34,862,138,2014-10-01T18:00:00,0,28157477,193268
OK,138,34,862,138,2014-10-01T18:05:00,0,28157924,193268
OK,138,34,862,138,2014-10-01T18:10:00,0,28158368,193268
OK,138,34,862,138,2014-10-01T18:15:00,0,28158814,193268
OK,138,34,862,138,2014-10-01T18:20:00,0,28159260,193268
OK,138,34,862,138,2014-10-01T18:25:00,0,28159596,193268
OK,138,34,862,138,2014-10-01T18:30:00,0,28160044,193268
OK,138,34,862,138,2014-10-01T18:35:00,0,28160493,193268
OK,138,34,862,138,2014-10-01T18:40:00,0,28160932,193268
OK,138,34,862,138,2014-10-01T18:45:00,0,28161380,193268
OK,138,34,862,138,2014-10-01T18:50:00,0,28161797,193268
OK,138,34,862,138,2014-10-01T18:55:00,0,28162246,193268
OK,138,34,862,138,2014-10-01T19:00:00,0,28162645,193268
OK,138,34,862,138,2014-10-01T19:05:00,0,28163079,193268
OK,138,34,862,138,2014-10-01T19:10:00,0,28163527,193268
OK,138,34,862,138,2014-10-01T19:15:00,0,28163976,193268
OK,138,34,862,138,2014-10-01T19:20:00,0,28164408,193268
OK,138,34,862,138,2014-10-01T19:25:00,0,28164856,193268
OK,138,34,862,138,2014-10-01T19:30:00,0,28165282,193268
OK,138,34,862,138,2014-10-01T19:35:00,0,28165729,193268
OK,138,34,862,138,2014-10-01T19:40:00,0,28166170,193268
OK,138,34,862,138,2014-10-01T19:45:00,0,28166532,193268
OK,138,34,862,138,2014-10-01T19:50:00,0,28166981,193268
OK,138,34,862,138,2014-10-01T19:55:00,0,28167410,193268
OK,138,34,862,138,2014-10-01T20:00:00,0,28167844,193268
OK,138,34,862,138,2014-10-01T20:05:00,0,28168292,193268
OK,138,34,862,138,2014-10-01T20:10:00,0,28168737,193268
OK,138,34,862,138,2014-10-01T20:15:00,0,28169186,193268
OK,138,34,862,138,2014-10-01T20:20:00,0,28169634,193268
OK,138,34,862,138,2014-10-01T20:25:00,0,28170060,193268
OK,138,34,862,138,2014-10-01T20:30:00,0,28170505,193268
OK,138,34,862,138,2014-10-01T20:35:00,0,28170953,193268
OK,138,34,862,138,2014-10-01T20:40:00,0,28171390,193268
OK,138,34,862,138,2014-10-01T20:45:00,0,28171836,193268
OK,138,34,862,138,2014-10-01T20:50:00,0,28172284,193268
OK,138,34,862,138,2014-10-01T20:55:00,0,28172730,193268
OK,138,34,862,138,2014-10-01T21:00:00,0,28173176,193268
OK,138,34,862,138,2014-10-01T21:05:00,0,28173625,193268
OK,138,34,862,138,2014-10-01T21:10:00,0,28174066,193268
OK,138,34,862,138,2014-10-01T21:15:00,0,28174515,193268
OK,138,34,862,138,2014-10-01T21:20:00,0,28174941,193268
OK,138,34,862,138,2014-10-01T21:25:00,0,28175337,193268
OK,138,34,862,138,2014-10-01T21:30:00,0,28175786,193268
OK,138,34,862,138,2014-10-01T21:35:00,0,28176235,193268
OK,138,34,862,138,2014-10-01T21:40:00,0,28176684,193268
OK,138,34,862,138,2014-10-01T21:45:00,0,28177044,193268
OK,138,34,862,138,2014-10-01T21:50:00,0,28177480,193268
OK,138,34,862,138,2014-10-01T21:55:00,0,28177926,193268
OK,138,34,862,138,2014-10-01T22:00:00,0,28178375,193268
OK,138,34,862,138,2014-10-01T22:05:00,0,28178822,193268
OK,138,34,862,138,2014-10-01T22:10:00,0,28179257,193268
OK,138,34,862,138,2014-10-01T22:15:00,0,28179699,193268
OK,138,34,862,138,2014-10-01T22:20:00,0,28180146,193268
OK,138,34,862,138,2014-10-01T22:25:00,0,28180544,193268
OK,138,34,862,138,2014-10-01T22:30:00,0,28180993,193268
OK,138,34,862,138,2014-10-01T22:35:00,0,28181417,193268
OK,138,34,862,138,2014-10-01T22:40:00,0,28181865,193268
OK,138,34,862,138,2014-10-01T22:45:00,0,28182312,193268
OK,138,34,862,138,2014-10-01T22:50:00,0,28182761,193268
OK,138,34,862,138,2014-10-01T22:55:00,0,28183178,193268
OK,138,34,862,138,2014-10-01T23:00:00,0,28183611,193268
OK,138,34,862,138,2014-10-01T23:05:00,0,28184056,193268
OK,138,34,862,138,2014-10-01T23:10:00,0,28184505,193268
OK,138,34,862,138,2014-10-01T23:15:00,0,28184940,193268
OK,138,34,862,138,2014-10-01T23:20:00,0,28185388,193268
OK,138,34,862,138,2014-10-01T23:25:00,0,28185819,193268
OK,138,34,862,138,2014-10-01T23:30:00,0,28186211,193268
OK,138,34,862,138,2014-10-01T23:40:00,0,28187058,193268
OK,138,34,862,138,2014-10-01T23:55:00,0,28188390,193268
OK,138,34,862,138,2014-10-02T00:00:00,0,28188826,193268
OK,138,34,862,138,2014-10-02T00:05:00,0,28189275,193268
OK,138,34,862,138,2014-10-02T00:10:00,0,28189698,193268
OK,138,34,862,138,2014-10-02T00:15:00,0,28190146,193268
OK,138,34,862,138,2014-10-02T00:20:00,0,28190500,193268
OK,138,34,862,138,2014-10-02T00:25:00,0,28190948,193268
OK,138,34,862,138,2014-10-02T00:30:00,0,28191397,193268
OK,138,34,862,138,2014-10-02T00:35:00,0,28191704,193268
OK,138,34,862,138,2014-10-02T00:40:00,0,28192152,193268
OK,138,34,862,138,2014-10-02T00:45:00,0,28192585,193268
OK,138,34,862,138,2014-10-02T00:50:00,0,28193029,193268
OK,138,34,862,138,2014-10-02T00:55:00,0,28193396,193268
OK,138,34,862,138,2014-10-02T01:05:00,0,28194294,193268
OK,138,34,862,138,2014-10-02T01:15:00,0,28194743,193268
OK,138,34,862,138,2014-10-02T01:20:00,0,28195428,193268
OK,138,34,862,138,2014-10-02T01:30:00,0,28195877,193268
OK,138,34,862,138,2014-10-02T01:35:00,0,28196610,193268
OK,138,34,862,138,2014-10-02T01:40:00,0,28197034,193268
OK,138,34,862,138,2014-10-02T01:45:00,0,28197482,193268
OK,138,34,862,138,2014-10-02T01:50:00,0,28197930,193268
OK,138,34,862,138,2014-10-02T01:55:00,0,28198378,193268
OK,138,34,862,138,2014-10-02T02:00:00,0,28198827,193268
OK,138,34,862,138,2014-10-02T02:05:00,0,28199205,193268
OK,138,34,862,138,2014-10-02T02:10:00,0,28199641,193268
OK,138,34,862,138,2014-10-02T02:15:00,0,28200083,193268
OK,138,34,862,138,2014-10-02T02:20:00,0,28200526,193268
OK,138,34,862,138,2014-10-02T02:25:00,0,28200975,193268
OK,138,34,862,138,2014-10-02T02:30:00,0,28201406,193268
OK,138,34,862,138,2014-10-02T02:45:00,0,28202304,193268
OK,138,34,862,138,2014-10-02T02:50:00,0,28202746,193268
OK,138,34,862,138,2014-10-02T02:55:00,0,28203194,193268
OK,138,34,862,138,2014-10-02T03:00:00,0,28203629,193268
OK,138,34,862,138,2014-10-02T03:10:00,0,28204078,193268
OK,138,34,862,138,2014-10-02T03:25:00,0,28204527,193268
OK,138,34,862,138,2014-10-02T03:30:00,0,28204976,193268
OK,138,34,862,138,2014-10-02T03:35:00,0,28205405,193268
OK,138,34,862,138,2014-10-02T03:40:00,0,28205851,193268
OK,138,34,862,138,2014-10-02T03:45:00,0,28206234,193268
OK,138,34,862,138,2014-10-02T03:55:00,0,28207132,193268
OK,138,34,862,138,2014-10-02T04:00:00,0,28207553,193268
OK,138,34,862,138,2014-10-02T04:05:00,0,28208000,193268
OK,138,34,862,138,2014-10-02T04:10:00,0,28208428,193268
OK,138,34,862,138,2014-10-02T04:15:00,0,28208876,193268
OK,138,34,862,138,2014-10-02T04:20:00,0,28209314,193268
OK,138,34,862,138,2014-10-02T04:25:00,0,28209763,193268
OK,138,34,862,138,2014-10-02T04:30:00,0,28210186,193268
OK,138,34,862,138,2014-10-02T04:35:00,0,28210635,193268
OK,138,34,862,138,2014-10-02T04:40:00,0,28211061,193268
OK,138,34,862,138,2014-10-02T04:45:00,0,28211504,193268
OK,138,34,862,138,2014-10-02T04:50:00,0,28211882,193268
OK,138,34,862,138,2014-10-02T04:55:00,0,28212331,193268
OK,138,34,862,138,2014-10-02T05:00:00,0,28212760,193268
OK,138,34,862,138,2014-10-02T05:05:00,0,28213209,193268
OK,138,34,862,138,2014-10-02T05:10:00,0,28213647,193268
OK,138,34,862,138,2014-10-02T05:15:00,0,28214096,193268
OK,138,34,862,138,2014-10-02T05:20:00,0,28214510,193268
OK,138,34,862,138,2014-10-02T05:25:00,0,28214958,193268
OK,138,34,862,138,2014-10-02T05:30:00,0,28215375,193268
OK,138,34,862,138,2014-10-02T05:40:00,0,28215823,193268
OK,138,34,862,138,2014-10-02T05:45:00,0,28216602,193268
OK,138,34,862,138,2014-10-02T05:50:00,0,28217049,193268
OK,138,34,862,138,2014-10-02T05:55:00,0,28217498,193268
OK,138,34,862,138,2014-10-02T06:00:00,0,28217937,193268
OK,138,34,862,138,2014-10-02T06:05:00,0,28218386,193268
OK,138,34,862,138,2014-10-02T06:10:00,0,28218806,193268
OK,138,34,862,138,2014-10-02T06:15:00,0,28219255,193268
OK,138,34,862,138,2014-10-02T06:20:00,0,28219629,193268
OK,138,34,862,138,2014-10-02T06:25:00,0,28220077,193268
OK,138,34,862,138,2014-10-02T06:30:00,0,28220512,193268
OK,138,34,862,138,2014-10-02T06:35:00,0,28220960,193268
OK,138,34,862,138,2014-10-02T06:40:00,0,28221347,193268
OK,138,34,862,138,2014-10-02T06:45:00,0,28221627,193268
OK,138,34,862,138,2014-10-02T07:00:00,0,28222221,193268
OK,138,34,862,138,2014-10-02T07:05:00,0,28222670,193268
OK,138,34,862,138,2014-10-02T07:10:00,0,28223102,193268
OK,138,34,862,138,2014-10-02T07:15:00,0,28223537,193268
OK,138,34,862,138,2014-10-02T07:20:00,0,28223984,193268
OK,138,34,862,138,2014-10-02T07:25:00,0,28224339,193268
OK,138,34,862,138,2014-10-02T07:30:00,0,28224788,193268
OK,138,34,862,138,2014-10-02T07:35:00,0,28225237,193268
OK,138,34,862,138,2014-10-02T07:40:00,0,28225561,193268
OK,138,34,862,138,2014-10-02T07:50:00,0,28226449,193268
OK,138,34,862,138,2014-10-02T07:55:00,0,28226898,193268
OK,138,34,862,138,2014-10-02T08:00:00,0,28227314,193268
OK,138,34,862,138,2014-10-02T08:05:00,0,28227762,193268
OK,138,34,862,138,2014-10-02T08:10:00,0,28228122,193268
OK,138,34,862,138,2014-10-02T08:15:00,0,28228570,193268
OK,138,34,862,138,2014-10-02T08:20:00,0,28228981,193268
OK,138,34,862,138,2014-10-02T08:25:00,0,28229429,193268
OK,138,34,862,138,2014-10-02T08:30:00,0,28229780,193268
OK,138,34,862,138,2014-10-02T08:35:00,0,28230228,193268
OK,138,34,862,138,2014-10-02T08:40:00,0,28230599,193268
OK,138,34,862,138,2014-10-02T08:45:00,0,28231043,193268
OK,138,34,862,138,2014-10-02T08:50:00,0,28231466,193268
OK,138,34,862,138,2014-10-02T08:55:00,0,28231915,193268
OK,138,34,862,138,2014-10-02T09:00:00,0,28232258,193268
OK,138,34,862,138,2014-10-02T09:10:00,0,28232706,193268
OK,89,53,862,89,2014-10-02T09:15:00,12,28233155,193268
OK,75,63,862,75,2014-10-02T09:20:00,3,28233579,193268
OK,72,66,862,72,2014-10-02T09:25:00,16,28234028,193268
OK,81,58,862,81,2014-10-02T09:30:00,0,28234362,193268
OK,99,48,862,99,2014-10-02T09:35:00,20,28234810,193268
OK,100,47,862,100,2014-10-02T09:40:00,5,28235237,193268
OK,85,55,862,85,2014-10-02T09:45:00,14,28235686,193268
OK,88,54,862,88,2014-10-02T09:50:00,4,28236130,193268
OK,95,50,862,95,2014-10-02T09:55:00,14,28236576,193268
OK,105,45,862,105,2014-10-02T10:00:00,6,28236979,193268
OK,114,41,862,114,2014-10-02T10:05:00,0,28237427,193268
OK,83,57,862,83,2014-10-02T10:10:00,18,28237875,193268
OK,84,56,862,84,2014-10-02T10:15:00,10,28238323,193268
OK,86,55,862,86,2014-10-02T10:20:00,9,28238763,193268
OK,80,59,862,80,2014-10-02T10:25:00,6,28239212,193268
OK,79,60,862,79,2014-10-02T10:30:00,2,28239643,193268
OK,97,48,862,97,2014-10-02T10:35:00,16,28240091,193268
OK,104,45,862,104,2014-10-02T10:40:00,8,28240536,193268
OK,93,51,862,93,2014-10-02T10:45:00,12,28240984,193268
OK,87,54,862,87,2014-10-02T10:50:00,3,28241417,193268
OK,84,56,862,84,2014-10-02T10:55:00,12,28241864,193268
OK,86,55,862,86,2014-10-02T11:00:00,5,28242261,193268
OK,117,40,862,117,2014-10-02T11:05:00,0,28242709,193268
OK,89,53,862,89,2014-10-02T11:15:00,16,28243158,193268
OK,80,59,862,80,2014-10-02T11:20:00,12,28243921,193268
OK,79,60,862,79,2014-10-02T11:25:00,3,28244351,193268
OK,79,60,862,79,2014-10-02T11:30:00,0,28244799,193268
OK,81,58,862,81,2014-10-02T11:35:00,13,28245248,193268
OK,91,52,862,91,2014-10-02T11:40:00,5,28245655,193268
OK,84,56,862,84,2014-10-02T11:45:00,0,28246103,193268
OK,92,51,862,92,2014-10-02T11:50:00,21,28246540,193268
OK,105,45,862,105,2014-10-02T11:55:00,13,28246989,193268
OK,94,50,862,94,2014-10-02T12:00:00,16,28247435,193268
OK,89,53,862,89,2014-10-02T12:05:00,6,28247866,193268
OK,94,50,862,94,2014-10-02T12:10:00,0,28248314,193268
OK,88,54,862,88,2014-10-02T12:15:00,15,28248762,193268
OK,89,53,862,89,2014-10-02T12:20:00,3,28249189,193268
OK,79,60,862,79,2014-10-02T12:25:00,11,28249633,193268
OK,85,55,862,85,2014-10-02T12:30:00,2,28250052,193268
OK,100,47,862,100,2014-10-02T12:35:00,14,28250450,193268
OK,93,51,862,93,2014-10-02T12:45:00,14,28251230,193268
OK,101,47,862,101,2014-10-02T13:20:00,16,28251775,193268
OK,95,50,862,95,2014-10-02T13:30:00,13,28252359,193268
OK,108,44,862,108,2014-10-02T13:35:00,8,28252801,193268
OK,79,60,862,79,2014-10-02T13:40:00,0,28253218,193268
OK,90,52,862,90,2014-10-02T13:45:00,19,28253667,193268
OK,90,52,862,90,2014-10-02T13:50:00,12,28254073,193268
OK,97,48,862,97,2014-10-02T13:55:00,13,28254393,193268
OK,88,54,862,88,2014-10-02T14:10:00,7,28254970,193268
OK,120,39,862,120,2014-10-02T14:15:00,21,28255419,193268
OK,118,40,862,118,2014-10-02T14:20:00,20,28255847,193268
OK,106,44,862,106,2014-10-02T14:25:00,4,28256296,193268
OK,120,39,862,120,2014-10-02T14:30:00,26,28256724,193268
OK,131,36,862,131,2014-10-02T14:35:00,25,28257173,193268
OK,93,51,862,93,2014-10-02T14:40:00,13,28257614,193268
OK,90,52,862,90,2014-10-02T14:45:00,21,28258062,193268
OK,91,52,862,91,2014-10-02T14:50:00,18,28258495,193268
OK,81,58,862,81,2014-10-02T14:55:00,11,28258941,193268
OK,87,54,862,87,2014-10-02T15:00:00,14,28259390,193268
OK,88,54,862,88,2014-10-02T15:05:00,16,28259837,193268
OK,86,55,862,86,2014-10-02T15:10:00,17,28260270,193268
OK,82,57,862,82,2014-10-02T15:15:00,17,28260719,193268
OK,81,58,862,81,2014-10-02T15:20:00,8,28261159,193268
OK,97,48,862,97,2014-10-02T15:25:00,18,28261541,193268
OK,103,46,862,103,2014-10-02T15:30:00,9,28261971,193268
OK,86,55,862,86,2014-10-02T15:35:00,10,28262418,193268